sat.trackr.live / text

‹ back to catalog

STARLINK-4714

NORAD 53704 · 2022-107E

PAYLOAD ACTIVE UNKNOWN

§ Identity

Operator
Country
US
Launch date
2022-09-05
Launch site
AFETR
Launch vehicle
Mass (kg)
RCS (m²)

Purposes: comms

External: N2YO · Heavens-Above · Gunter

§ Orbital elements

Epoch: 2026-09-20T21:48:03.757248Z

Period
94.01 min
Inclination
53.1599°
Eccentricity
0.0001245
Mean motion
15.31703885 rev/d
Perigee alt
469.9 km
Apogee alt
471.6 km
Semi-major
6,848.9 km
B*
2.6138e-5
RAAN
73.8811°
Arg perigee
88.3796°
Mean anomaly
271.7348°
Rev number
22,435

§ Raw data

STARLINK-47141 53704U 22107E   26263.90837682  .00000446  00000+0  26138-4 0  99902 53704  53.1599  73.8811 0001245  88.3796 271.7348 15.31703885224353

JSON: /api/v1/satellites/53704 · /tle

For live sub-satellite position, see the globe view (requires WebGL).

§ Visibility from observer

Set your observer location to see the next 7 days of passes ≥ 10°. The values pass through the URL so the page stays shareable.

No JS? Fill the form by hand. The geolocation button needs JavaScript.